Lapse_Rate
6.8 6.7 6.6 6.5 6.5 6.6 6.6 6.8 7.0 7.2 7.2 6.9 6.8 7.0 7.5 7.7 7.7 8.0 8.1 7.2 7.4 7.4 7.3 7.1 7.1 7.0 7.1 6.8 6.6 6.7 6.4 6.9 7.4 7.5 8.0 8.0 7.5 7.2 8.3 8.3 8.0 7.6 7.0 7.0 7.7
6.8 6.8 6.7 6.5 6.4 6.5 6.6 6.7 6.8 7.0 7.2 7.2 7.1 6.9 7.1 7.6 7.8 7.9 7.5 7.5 7.5 7.6 7.1 6.9 6.9 6.9 6.8 6.7 6.5 6.3 6.6 7.3 7.6 7.7 8.3 8.0 7.5 7.8 8.1 8.3 8.2 7.8 7.3 7.5 7.8
6.7 6.8 6.9 6.7 6.6 6.4 6.4 6.6 6.7 6.8 7.0 7.2 7.2 7.0 6.9 7.2 7.7 7.5 7.6 7.7 7.6 7.5 7.0 6.6 6.4 6.3 6.5 6.7 6.6 6.5 7.0 7.4 7.9 7.7 8.5 8.2 7.6 7.9 8.0 8.2 8.4 8.0 7.4 7.4 7.7
6.7 6.7 6.8 6.8 6.7 6.5 6.4 6.4 6.4 6.6 6.8 7.0 7.2 7.2 7.1 7.1 7.4 7.5 7.3 7.1 7.2 7.3 7.2 7.0 6.7 6.7 6.6 6.6 6.6 6.6 6.9 7.3 7.5 7.9 8.1 8.2 7.8 7.8 8.0 8.3 8.3 8.2 7.5 7.3 7.6
6.8 6.7 6.7 6.7 6.7 6.6 6.5 6.4 6.3 6.4 6.6 6.8 7.0 7.3 7.3 7.5 7.6 7.0 7.2 6.9 7.2 7.3 7.1 7.3 7.0 7.0 6.7 6.7 6.5 6.7 6.9 7.1 7.3 7.5 7.8 8.0 7.6 7.6 7.6 7.8 8.0 7.8 7.5 7.3 7.3
6.8 6.8 6.8 6.8 6.7 6.6 6.4 6.3 6.3 6.3 6.5 6.7 6.9 7.2 7.4 7.5 7.3 7.3 7.3 7.0 7.2 7.0 6.9 7.0 6.8 6.6 6.4 6.5 6.4 6.7 6.7 6.7 6.9 7.4 7.6 7.9 7.7 7.8 7.8 7.9 7.9 7.7 7.3 7.2 7.5
6.7 6.8 6.8 6.7 6.7 6.7 6.6 6.4 6.4 6.3 6.4 6.6 6.8 7.0 7.4 7.2 7.4 7.2 7.2 6.9 6.7 6.8 6.6 6.6 6.4 6.1 6.2 6.2 6.1 6.3 6.3 6.3 6.7 7.2 7.5 7.8 7.7 8.3 8.0 8.2 7.8 7.8 7.3 7.5 7.8
6.8 6.7 6.8 6.8 6.7 6.7 6.7 6.5 6.4 6.4 6.4 6.6 6.7 6.9 7.6 7.2 7.2 7.0 7.1 7.0 6.8 6.7 6.5 6.3 6.3 6.2 6.2 6.2 6.3 6.3 6.5 6.6 7.2 7.4 7.7 7.7 7.9 8.0 8.1 8.2 7.9 7.8 7.8 7.8 8.0
6.7 6.7 6.7 6.7 6.8 6.7 6.8 6.6 6.5 6.4 6.4 6.5 6.5 6.9 7.4 7.5 7.2 6.9 6.8 6.9 6.7 6.7 6.4 6.1 6.1 6.2 6.2 6.3 6.4 6.5 6.8 7.2 7.6 7.8 7.9 7.8 8.0 7.9 8.2 8.2 8.2 8.1 8.0 8.2 8.3
6.6 6.6 6.7 6.7 6.6 6.7 6.8 6.6 6.5 6.4 6.2 6.5 6.6 6.8 6.9 7.0 7.0 6.9 6.9 7.0 6.9 6.7 6.5 6.2 6.2 6.3 6.5 6.6 6.8 7.0 7.3 7.5 7.7 8.0 8.0 8.1 8.2 8.3 8.3 8.2 8.2 8.3 8.2 8.1 8.1
6.5 6.6 6.6 6.7 6.8 6.6 6.8 6.6 6.5 6.3 6.4 6.6 6.6 6.4 6.6 6.6 7.0 7.1 7.1 7.1 6.9 6.8 6.7 6.5 6.4 6.7 7.0 7.0 7.2 7.4 7.9 8.0 8.2 8.1 8.0 8.1 8.0 8.3 8.2 8.0 7.8 8.0 8.1 8.1 8.0
6.5 6.5 6.6 6.6 6.8 6.8 6.8 6.6 6.4 6.6 6.8 6.7 6.7 7.0 6.7 6.7 6.9 7.0 7.2 7.1 7.0 6.8 6.8 6.8 6.9 7.2 7.3 7.4 7.8 7.9 8.2 8.2 8.1 8.2 8.1 7.9 7.8 7.9 8.1 8.1 7.9 8.0 8.0 8.1 8.2
6.4 6.5 6.6 6.6 6.9 6.8 6.8 6.6 6.4 6.5 6.7 7.1 7.1 7.3 7.0 6.9 7.1 7.0 6.9 7.0 7.1 7.2 7.1 7.2 7.3 7.5 7.2 7.8 8.2 8.2 8.3 8.3 7.9 7.6 7.4 8.2 7.7 7.6 7.8 7.9 7.9 8.0 7.9 7.9 7.9
6.4 6.5 6.6 6.6 7.0 6.8 6.6 6.7 6.6 6.6 6.7 7.3 7.3 7.5 7.3 7.2 7.3 7.0 7.1 7.2 7.0 7.2 7.6 7.7 7.7 7.6 7.6 7.7 8.3 8.5 8.7 8.4 7.9 8.1 7.0 7.4 6.2 7.0 7.8 7.9 7.9 7.8 8.0 8.2 7.9
6.4 6.5 6.5 6.8 7.0 6.8 6.2 6.5 6.6 6.7 6.0 7.3 7.3 7.6 7.5 7.8 7.7 7.3 7.3 7.0 7.3 7.3 7.7 8.3 8.1 7.8 8.1 8.4 8.6 8.7 8.8 8.9 8.7 8.4 8.0 8.1 8.0 7.4 7.5 7.6 7.8 8.0 8.3 8.4 8.2
6.5 6.5 6.6 6.8 7.3 6.6 6.7 6.6 6.7 6.8 6.2 7.4 7.4 7.7 7.9 8.0 8.1 7.9 7.5 7.6 8.1 8.4 8.6 8.6 8.5 8.3 8.8 9.1 9.0 9.0 8.8 8.9 9.0 8.8 7.8 8.4 8.3 7.7 7.8 8.1 8.4 8.4 8.4 8.4 8.3
6.9 6.6 6.7 7.2 7.2 7.1 7.1 6.7 6.8 6.9 7.6 7.6 7.6 7.8 8.2 8.5 8.4 8.3 8.0 7.7 7.8 8.2 8.5 8.7 8.6 8.7 8.9 9.2 8.8 8.9 9.0 8.2 7.8 7.0 6.6 7.8 7.7 8.3 8.5 8.4 8.3 8.3 8.4 8.3 8.1
7.2 6.9 7.1 6.9 7.3 7.3 7.1 6.8 6.8 7.3 7.7 7.6 7.8 7.9 8.2 8.6 8.6 8.5 8.8 8.8 8.5 8.8 9.0 8.9 8.7 8.8 8.8 8.9 8.8 8.9 9.0 8.6 7.4 6.0 6.6 7.9 8.0 8.6 8.7 8.7 8.6 8.4 8.0 7.7 7.7
7.5 7.3 7.4 7.2 7.4 7.3 7.2 6.8 6.9 7.7 7.7 7.7 8.0 8.2 8.1 8.6 8.5 8.7 8.9 8.9 9.2 9.1 8.7 8.9 9.0 8.8 8.8 8.9 8.7 8.8 9.1 8.8 8.4 7.1 7.1 7.7 8.0 8.3 8.5 8.6 8.6 8.6 8.6 8.6 7.9
8.0 7.8 7.6 7.6 7.5 7.3 7.2 7.1 7.2 7.7 7.9 7.8 7.8 8.1 8.2 8.3 8.4 8.7 8.7 8.8 8.9 8.8 8.9 9.0 8.9 9.1 8.8 8.8 8.8 8.5 8.6 8.7 8.5 6.5 6.7 7.0 7.7 8.6 8.7 8.6 8.5 8.5 8.4 8.4 7.7
7.9 8.0 7.9 7.8 7.8 7.3 7.2 7.2 7.5 7.8 7.8 7.8 7.9 7.8 7.9 8.1 8.1 8.3 8.4 8.3 8.5 8.6 8.5 8.7 8.9 8.8 9.0 8.8 8.9 8.8 8.9 8.9 8.6 8.2 5.7 6.0 7.6 8.3 8.2 8.1 8.3 8.4 8.4 8.2 8.0
7.6 7.7 7.9 7.9 7.6 7.5 7.5 7.6 7.7 7.8 7.5 7.5 7.7 7.6 7.9 7.7 7.9 8.0 8.2 8.1 8.2 8.4 8.4 8.8 8.9 8.7 8.8 8.9 9.0 9.1 9.1 8.8 8.5 7.4 7.4 7.0 7.5 8.1 8.0 8.1 8.0 8.1 8.2 8.2 8.0
7.3 7.6 7.7 7.8 7.6 7.5 7.7 7.7 7.7 7.7 7.8 7.9 7.7 7.6 7.5 7.6 7.7 7.6 7.8 8.1 8.4 8.4 8.3 8.4 8.7 8.4 8.1 8.4 8.4 8.3 8.5 8.5 8.5 8.6 8.2 7.1 7.7 8.0 7.8 7.9 8.0 8.0 7.9 7.9 7.8
7.3 7.3 7.5 7.5 7.7 7.9 8.0 7.8 7.8 8.0 8.1 8.0 7.9 7.8 7.6 7.6 7.8 8.0 8.0 7.7 7.8 8.2 8.3 8.2 8.9 8.8 8.4 8.7 8.7 8.7 8.7 8.7 8.5 8.2 8.1 7.9 8.0 8.0 7.8 7.7 7.8 7.8 8.0 8.1 8.0
7.3 7.4 7.6 7.7 7.6 7.6 7.9 8.3 8.1 8.4 8.4 8.2 8.1 8.1 7.9 7.7 7.9 8.0 7.8 8.1 8.4 7.8 8.0 7.9 8.1 8.6 8.9 9.0 9.0 8.9 8.7 8.2 7.9 8.1 8.1 8.2 8.0 7.8 7.9 7.9 7.9 8.0 8.0 8.0 7.8
7.6 7.7 7.8 7.7 7.8 7.4 7.7 8.4 8.5 8.5 8.5 8.4 8.4 8.3 8.0 8.0 8.0 8.3 8.4 8.4 8.2 8.0 6.9 8.3 8.4 8.7 8.4 8.8 8.8 8.6 8.6 8.4 8.2 8.1 8.0 8.0 7.8 7.7 7.8 8.0 8.1 8.1 8.1 8.2 8.1
7.6 7.6 7.9 7.3 7.4 6.7 7.4 8.1 8.5 8.5 8.4 8.4 8.5 8.4 8.1 8.0 8.1 8.1 8.0 8.0 7.8 7.7 7.5 7.9 8.0 8.0 8.3 8.3 8.1 7.5 7.9 8.0 7.9 7.9 7.9 7.8 7.9 7.8 7.8 7.7 7.7 7.8 8.0 8.1 8.0
Wind_Speed
19 19 18 16 15 14 13 12 11 10 10 9 10 9 9 9 10 3 7 12 9 8 7 11 5 3 3 4 4 4 3 5 6 7 4 1 5 5 3 9 5 6 6 8 19
20 19 18 17 16 15 13 12 11 10 9 8 8 9 9 9 2 9 13 13 14 18 8 13 9 8 3 5 3 4 5 8 7 4 3 1 3 5 1 5 4 6 13 20 18
21 20 19 18 17 15 14 12 11 10 9 8 7 8 8 7 3 8 3 19 18 18 8 5 8 7 5 3 5 6 6 5 4 6 4 4 8 2 7 4 6 13 17 18 15
22 22 21 19 18 16 14 13 11 9 8 7 6 6 7 1 5 3 7 20 18 10 7 9 6 7 6 6 6 3 7 5 5 4 3 2 8 10 4 5 7 20 24 20 17
23 22 22 20 19 17 15 13 11 9 7 6 5 4 2 1 10 3 18 19 9 6 9 8 7 6 7 7 6 5 4 6 10 8 5 1 7 6 3 1 14 18 16 17 15
23 23 22 21 19 18 15 13 11 9 8 6 3 1 1 4 4 9 10 11 9 6 7 8 9 7 5 6 7 8 11 9 5 8 5 6 3 1 4 10 14 16 12 11 11
24 24 23 22 20 18 16 13 11 9 7 4 2 2 1 14 7 8 8 5 7 6 6 4 6 6 5 5 6 3 4 4 8 5 6 8 4 4 2 10 15 12 9 8 7
25 25 24 23 22 18 17 14 11 8 5 3 4 2 7 4 2 7 6 4 5 2 4 6 6 2 2 2 4 1 2 0 3 8 4 8 5 2 2 13 13 12 8 8 6
25 25 24 24 22 19 17 15 11 7 4 6 3 2 9 3 3 6 8 8 8 2 2 4 4 2 1 4 4 4 2 4 6 6 5 3 3 3 1 10 12 10 7 8 8
26 25 24 24 22 18 18 14 3 6 5 5 4 2 6 4 4 7 4 9 6 7 2 4 3 2 3 3 4 4 2 1 4 1 6 4 1 4 4 8 11 11 8 8 10
28 26 25 23 20 13 8 2 2 1 4 10 7 4 4 4 6 4 6 5 5 4 5 3 4 6 10 6 3 4 2 3 6 5 4 7 6 4 5 7 8 8 9 11 9
29 28 27 23 18 10 3 4 6 2 5 15 8 7 6 3 4 5 8 6 4 4 4 4 6 12 6 6 4 3 3 6 4 3 6 8 6 6 6 4 5 5 7 10 5
29 28 27 25 21 3 7 9 3 9 2 6 7 6 6 9 8 6 9 6 5 6 5 6 5 8 7 5 6 5 5 4 3 6 8 11 5 4 4 4 6 6 5 6 7
29 28 27 25 1 1 5 4 7 2 2 5 4 7 6 6 4 8 7 7 2 9 7 5 5 7 5 6 7 3 6 2 6 6 5 2 3 3 1 3 4 6 6 5 6
31 29 25 9 7 3 3 5 7 3 3 3 4 4 6 9 7 5 7 5 8 6 6 8 4 5 4 8 8 6 4 3 3 7 6 5 5 1 2 5 7 10 10 8 6
35 31 27 6 5 11 2 8 3 5 5 2 4 5 4 3 3 5 5 5 4 4 3 7 4 4 5 5 5 9 5 6 6 3 3 1 5 3 6 12 9 8 9 11 8
37 39 22 7 5 2 5 3 3 4 4 1 3 3 3 4 5 5 7 6 5 4 4 5 2 1 4 9 6 6 6 4 5 5 4 5 3 7 7 5 6 15 11 12 10
42 43 5 6 17 2 2 3 4 5 5 2 2 3 5 2 2 4 10 8 0 4 3 5 3 4 2 6 7 1 5 6 4 4 4 2 3 4 4 6 6 11 14 11 10
39 3 3 3 10 5 3 4 8 6 3 1 2 2 2 2 3 4 6 11 9 8 6 4 3 1 4 4 6 2 3 3 8 4 3 2 4 8 3 5 2 9 13 14 13
9 5 4 3 14 3 3 5 6 4 4 2 1 1 2 3 3 4 5 4 6 8 4 2 1 3 3 5 6 5 5 3 3 4 3 4 3 5 5 6 3 8 14 12 8
2 4 5 5 3 4 4 5 4 4 3 3 3 3 3 3 1 2 2 4 2 5 4 5 3 2 3 1 8 3 2 7 6 4 6 3 5 6 8 9 12 12 12 13 11
5 2 2 1 3 1 4 5 3 2 3 2 4 3 6 6 4 0 2 4 3 7 7 4 5 4 2 5 1 2 4 5 5 5 2 4 6 5 6 8 7 9 12 11 12
5 3 3 3 3 3 5 3 3 3 4 6 4 3 2 3 2 2 3 1 6 4 5 5 1 4 3 5 3 6 3 5 6 4 5 5 6 4 9 10 7 5 6 8 9
2 3 4 3 1 3 4 4 2 3 3 4 4 4 4 3 3 1 2 3 3 4 8 9 2 5 8 6 5 5 4 4 5 4 4 5 5 6 12 11 11 9 4 5 5
3 1 1 3 3 2 1 5 3 4 3 6 3 3 4 3 2 1 3 3 6 4 4 4 4 1 2 5 4 5 6 5 4 4 5 4 6 4 6 7 8 8 9 3 5
3 4 5 3 3 12 9 5 5 4 4 4 4 4 4 3 5 5 4 2 2 8 7 6 5 2 2 2 6 5 6 4 4 3 1 3 3 2 3 5 7 10 11 11 10
2 2 3 6 5 4 3 6 7 3 9 6 1 4 7 3 2 4 6 7 5 4 4 4 6 4 2 3 6 2 3 1 3 3 1 4 2 5 5 9 5 5 5 7 8
Wind_Direction
343 339 336 332 328 324 319 317 314 309 302 301 304 308 314 313 306 194 237 219 180 167 136 117 77 123 92 127 114 133 82 218 204 171 230 292 11 293 250 161 141 142 120 144 140
343 340 336 332 329 327 321 315 312 307 300 297 301 310 317 324 272 240 240 208 196 161 121 139 151 137 125 155 172 129 167 216 206 205 224 241 213 289 95 132 77 67 89 126 137
344 341 338 334 329 325 321 314 310 301 296 298 304 312 320 331 312 247 245 202 179 176 133 106 116 124 142 135 186 186 212 212 236 233 297 308 313 262 146 191 211 159 142 140 146
347 344 341 338 331 326 322 314 304 299 297 298 307 315 319 304 254 8 336 165 160 149 113 109 119 129 140 179 194 180 219 206 242 239 297 328 316 329 231 324 154 151 154 149 163
345 345 343 338 332 325 319 312 305 299 293 291 307 310 358 222 251 109 112 140 131 138 143 134 142 139 165 187 145 221 242 218 238 266 249 231 265 257 270 292 127 128 144 159 165
346 344 341 338 332 325 317 310 301 292 285 283 295 308 172 250 225 158 128 139 146 134 168 146 171 197 150 186 173 210 218 236 239 244 224 196 253 140 28 135 114 129 139 165 166
343 343 341 337 332 325 317 309 305 295 285 265 225 210 237 238 114 134 141 173 161 148 149 202 163 168 138 162 228 199 224 255 227 212 212 148 312 221 94 137 123 119 137 136 165
342 340 339 336 331 326 316 308 300 290 266 220 188 213 245 239 160 152 162 125 141 58 121 185 159 141 200 219 27 127 73 68 272 152 199 128 242 236 84 136 120 119 116 102 65
339 338 336 335 331 326 318 307 288 268 212 175 148 196 264 307 215 179 157 146 123 138 259 134 129 187 10 96 16 1 199 201 312 186 118 106 195 186 77 136 121 115 109 104 87
338 335 334 334 330 329 323 307 245 147 140 169 264 323 269 246 187 136 167 141 143 129 172 152 78 106 42 101 196 203 194 312 258 102 72 83 115 85 79 135 129 122 113 100 100
334 333 332 330 327 329 339 46 78 213 224 195 191 227 280 280 124 124 152 108 122 129 145 186 120 200 213 200 175 139 127 250 242 231 131 178 130 82 74 78 109 126 123 123 104
331 330 330 327 319 311 289 224 225 246 289 223 230 268 275 51 326 102 133 126 130 163 131 64 218 216 180 166 166 204 249 275 293 7 102 124 63 65 65 84 93 117 113 133 112
328 328 329 326 316 270 224 232 4 2 248 280 187 203 208 152 205 221 147 144 151 147 162 159 231 134 140 161 176 203 200 236 179 88 62 102 43 358 16 81 98 87 104 124 141
325 325 328 329 23 240 246 215 238 175 20 266 241 251 147 164 197 187 167 141 135 187 167 224 258 200 169 194 162 198 189 130 181 97 152 60 189 257 220 111 154 142 156 150 138
322 320 323 325 292 234 270 21 121 81 336 231 193 133 163 161 148 208 181 73 156 183 133 239 196 182 158 202 151 199 123 164 99 92 107 359 83 200 139 224 219 188 176 175 165
319 316 319 299 212 235 327 333 72 52 254 319 137 145 165 178 188 110 131 92 157 157 230 226 254 202 185 68 117 143 105 54 46 82 68 223 123 270 184 207 205 178 184 165 172
320 313 304 228 225 168 151 144 73 158 305 213 94 73 232 155 165 131 141 132 161 111 256 343 311 55 113 75 32 66 62 14 16 16 201 336 58 228 231 230 201 190 175 164 166
322 312 262 195 221 271 134 86 158 218 242 322 76 14 100 359 105 160 141 180 125 100 110 165 356 162 184 134 175 159 135 145 166 184 261 354 219 252 222 283 256 186 165 160 172
322 319 258 238 173 129 119 158 188 202 205 82 87 91 98 14 109 91 150 185 192 169 155 138 259 289 30 129 127 189 76 140 103 18 68 258 296 320 350 331 191 161 165 175 180
315 317 271 84 158 125 98 208 175 200 115 72 104 32 96 339 76 62 146 196 158 190 131 210 106 344 150 82 44 107 141 90 20 131 211 278 281 230 275 249 201 186 188 180 174
329 335 338 129 148 63 169 209 203 200 122 138 154 117 135 173 125 112 116 180 205 147 114 134 111 259 64 116 168 144 146 57 110 122 163 196 257 218 217 213 204 208 200 188 173
338 46 183 258 69 89 152 185 212 242 111 123 116 132 167 189 183 132 64 206 123 167 146 172 142 152 177 294 193 61 133 128 124 206 126 147 265 16 315 263 221 212 200 193 187
321 284 295 127 75 10 319 315 195 180 187 153 145 178 115 121 105 167 165 241 28 54 144 161 289 97 26 349 21 84 78 94 104 82 185 148 257 96 33 19 356 265 248 209 197
331 22 333 49 160 60 7 324 112 33 74 101 102 90 96 57 65 176 266 52 78 102 78 78 115 153 189 202 143 109 104 107 103 115 173 223 280 353 15 6 343 332 259 199 222
10 15 335 6 343 161 5 338 317 65 68 33 56 133 138 112 35 261 206 354 40 104 66 106 102 233 64 123 97 113 140 158 158 164 157 238 195 34 347 357 349 343 359 258 221
49 9 343 330 324 26 21 334 15 26 33 18 111 88 92 116 194 173 153 93 93 28 20 359 138 126 99 91 76 82 42 71 59 34 236 134 148 23 308 356 13 10 6 15 4
340 307 299 353 10 80 276 309 358 346 17 49 21 90 76 37 18 39 56 62 64 110 200 145 137 106 225 153 119 45 313 45 110 61 332 180 46 1 336 337 331 3 14 7 354